Location: Gälforsberget
(66.6500°N, 22.4167°E)
Time: 11:46:05
(UTC+00:00)

COSMOS 2428 - Pass Details

Date: 11 April 2026
Orbit: 843 x 855 km, 70.9° (Epoch: 10 May)

Event Time Altitude Azimuth Distance (km) Brightness Sun altitude
Rises 23:03:47 0° 263° (W) 3,432 5.7 -14.5°
Reaches altitude 10° 23:06:17 10° 267° (W) 2,497 5.0 -14.5°
Maximum altitude 23:11:58 60° 347° (NNW) 979 3.3 -14.4°
Drops below altitude 10° 23:17:40 10° 68° (ENE) 2,497 5.6 -14.3°
Sets 23:20:10 0° 72° (ENE) 3,433 6.3 -14.2°
